Location: Caserta Vecchia
(41.1000°N, 14.3667°E)
Time: 12:55:00
(UTC+00:00)

Daily predictions for brighter satellites

Satellite Brightness Start Highest point End
(mag) Time Altitude Azimuth Time Altitude Azimuth Time Altitude Azimuth
Cosmos 783 Rocket 4.5 18:42:40 10° S 18:47:49 72° ESE 18:53:01 10° NNE
Cosmos 1437 2.3 18:49:00 10° N 18:51:45 64° E 18:54:28 10° SSE
Cosmos 1869 4.3 18:48:44 10° NNW 18:52:27 47° W 18:56:09 10° SSW
Atlas Centaur 2 3.1 18:50:06 10° SW 18:53:12 18° S 18:55:59 10° SE
ATLAS 2AS CENTAUR R/B 3.2 18:45:28 10° SW 18:53:23 83° NW 19:01:13 10° NNE
Cosmos 1953 Rocket 4.1 18:49:00 10° SSW 18:53:28 68° W 18:57:56 10° N
Cosmos 1697 Rocket 2.8 18:52:26 10° NNW 18:58:09 87° ENE 19:03:48 10° SSE
Helios 1A Rocket 2.9 18:54:18 10° SSE 18:58:20 90° SSE 19:02:25 10° NNW
Cosmos 1076 Rocket 4.3 18:55:49 10° SSE 18:59:42 34° E 19:03:39 10° NNE
Cosmos 1437 Rocket 3.8 18:56:34 10° NNW 19:00:18 48° W 19:04:06 10° S
ATLAS 3B R/B 3.4 18:55:36 10° NNW 19:02:25 46° NE 19:09:27 10° ESE
Cosmos 2279 Rocket 4.0 18:57:07 10° N 19:03:20 79° E 19:09:32 10° S
BREEZE M DEB (TANK) 3.9 19:01:25 10° S 19:03:40 21° ESE 19:09:15 10° ENE
Cosmos 773 Rocket 4.0 18:59:14 10° SSW 19:04:26 84° ESE 19:09:38 10° NNE
Cosmos 1833 Rocket 3.7 18:59:16 10° SW 19:04:45 53° WNW 19:10:17 10° NNE
OBJECT-B 1.8 19:03:47 10° S 19:06:52 46° W 19:09:59 10° NNW
SAR-Lupe-1 4.2 19:03:26 10° N 19:07:01 82° WNW 19:10:35 10° SSW
SAR-Lupe-4 3.5 19:04:36 10° NNE 19:08:11 89° ENE 19:11:46 10° SSW
Cosmos 2082 Rocket 2.2 19:05:39 10° SSW 19:11:16 86° ESE 19:16:57 10° NNE
SJ-6B 3.4 19:07:49 10° S 19:11:29 55° W 19:15:09 10° NNW
Resurs 1-3 3.6 19:12:27 10° SSE 19:16:50 84° ENE 19:21:15 10° N
Cosmos 1842 Rocket 3.6 19:12:28 10° N 19:16:59 77° E 19:21:27 10° SSE
Cosmos 2278 4.0 19:12:16 10° NNW 19:17:47 53° ENE 19:22:42 13° SE
Cosmos 1633 2.5 19:18:11 10° S 19:21:45 65° E 19:25:20 10° NNE
Cosmos 2360 Rocket 4.4 19:22:20 10° NNE 19:24:04 11° NE 19:25:49 10° ENE
Cosmos 158 Rocket 4.3 19:20:26 10° S 19:25:15 44° ESE 19:30:14 10° NNE
Nadezhda 4 Rocket 4.0 19:24:04 10° S 19:30:10 70° E 19:36:21 10° NNE
Cosmos 1606 2.6 19:28:35 10° N 19:32:23 90° W 19:36:00 11° S
Landsat 7 3.8 19:32:01 13° SSE 19:36:10 68° ENE 19:40:55 10° N
GP-B 4.3 19:33:21 10° NNE 19:37:01 25° E 19:38:47 19° ESE
SPOT 3 Rocket 3.7 19:33:28 14° SSE 19:37:51 63° ENE 19:43:01 10° N
IGS 5A 3.4 19:35:49 13° SSE 19:39:25 85° ENE 19:43:35 10° N
Cosmos 1680 Rocket 4.5 19:37:14 17° SE 19:40:05 27° E 19:44:27 10° NE
ISS -2.7 19:37:46 10° NW 19:40:58 38° NNE 19:42:58 19° E
MetOp-B 4.2 19:40:08 17° SSE 19:44:16 62° ENE 19:49:34 10° N
Cosmos 1980 Rocket 2.3 19:40:48 10° NNW 19:46:26 74° WSW 19:51:04 16° SSE
Cosmos 2369 4.3 19:41:14 10° NNW 19:46:42 53° WSW 19:52:02 11° S
CZ-2C R/B 3.8 19:44:17 10° NNE 19:48:42 52° E 19:52:04 16° S
RESURS DK-1 4.3 19:46:07 10° WSW 19:49:53 33° WNW 19:53:41 10° N
USA 245 4.2 19:47:54 21° SE 19:51:06 50° ENE 19:55:19 10° N
Cosmos 2221 3.8 19:47:13 10° NNW 19:51:15 39° W 19:55:17 10° SSW
ERBS 4.1 19:49:54 10° WNW 19:52:30 22° SW 19:54:07 15° SSW
Hubble Space Telescope 3.1 19:53:16 10° SSW 19:53:43 10° SSW 19:53:56 10° S
BREEZE-M DEB (TANK) 3.4 19:50:58 10° WSW 19:54:20 75° NNW 20:05:46 10° ENE
Meteor 2-15 4.4 19:50:11 10° N 19:56:16 78° E 20:00:51 18° SSE
Cosmos 2322 Rocket 3.3 19:52:10 10° N 19:57:07 30° NE 19:59:58 20° ESE
Cosmos 1538 Rocket 4.5 19:55:11 10° SSW 20:00:21 63° WNW 20:05:30 10° NNE
Cosmos 304 Rocket 3.9 19:56:56 10° NNW 20:01:41 59° ENE 20:03:55 30° SE
BREEZE-M DEB (TANK) 4.0 19:58:16 10° NW 20:01:49 71° NNE 20:09:25 18° ESE
Resurs 01 Rocket 2.2 19:58:24 14° S 20:02:04 56° W 20:06:28 10° NNW
Cosmos 1933 3.3 19:58:50 10° N 20:02:53 65° E 20:04:32 33° SSE
Cosmos 2151 3.1 20:00:23 11° SSW 20:04:29 76° W 20:08:46 10° N
Cosmos 2098 Rocket 4.0 20:03:12 10° SW 20:05:58 32° WNW 20:09:09 10° N
ERS-2 4.2 20:03:31 10° N 20:06:42 29° WNW 20:09:51 10° SW
Meteor 2-3 Rocket 3.7 20:04:03 11° S 20:09:34 84° E 20:15:19 10° N
Gbstr 26 Del rocket 3.8 20:07:32 10° NW 20:11:04 38° NNE 20:12:56 24° E
CARTOSAT-1 3.7 20:09:30 35° SE 20:11:06 58° ENE 20:15:21 10° N
JB-3 4.3 20:07:25 10° NNE 20:11:35 83° ESE 20:13:56 25° S
Cosmos 2084 3.9 20:12:29 36° ESE 20:12:29 36° ESE 20:15:55 10° NE
Meteor 2-15 Rocket 4.4 20:08:19 10° N 20:14:26 84° E 20:18:11 25° S
Cosmos 2219 Rocket 4.4 20:16:00 10° NNE 20:18:07 12° NE 20:20:12 10° ENE
Cosmos 1862 4.4 20:21:26 28° E 20:21:26 28° E 20:24:27 10° NNE
COSMOS 2455 4.4 20:26:05 18° E 20:26:05 18° E 20:28:51 10° ENE
SL-16 R/B 2.3 20:20:11 10° NNW 20:25:51 65° ENE 20:28:03 37° SE
ARIANE 5 R/B 2.6 20:26:51 44° SSE 20:28:11 74° ENE 20:32:39 10° N
Cosmos 1782 2.7 20:25:18 10° N 20:29:20 78° E 20:30:03 57° SSE
Cosmos 371 Rocket 4.4 20:25:45 10° NW 20:30:12 38° WSW 20:32:52 21° SSW
Cosmos 1809 Rocket 4.4 20:30:11 31° SSE 20:33:16 68° E 20:39:22 10° NNE
SPOT 1/Viking Rocket 4.2 20:31:19 23° SSW 20:34:22 52° W 20:39:28 10° NNW
Cosmos 1271 Rocket 3.1 20:31:57 10° NNW 20:35:54 63° W 20:36:56 44° SSW
USA 276 2.9 20:35:38 10° NW 20:38:32 46° NNE 20:38:32 46° NNE
Cosmos 1766 Rocket 3.4 20:37:42 49° S 20:38:53 86° E 20:43:17 10° N
BREEZE-M DEB (TANK) 3.0 20:36:04 10° WNW 20:39:37 85° SSW 20:43:14 33° SE
Atlas Centaur 2 3.7 20:38:54 10° SW 20:39:03 10° SW 20:39:03 10° SW
Cosmos 1151 Rocket 2.9 20:38:35 10° N 20:42:58 85° E 20:43:40 62° SSE
Cosmos 1328 Rocket 3.4 20:42:46 10° N 20:47:13 71° E 20:47:39 65° SE
Terra 1.8 20:47:56 56° SE 20:48:44 68° ENE 20:53:29 10° N
SPOT 5 2.5 20:50:48 62° S 20:51:28 78° WSW 20:55:51 10° NNW
ATLAS 3B R/B 3.6 20:46:27 10° NW 20:53:06 42° WSW 20:56:42 26° SSW
USA 267 3.2 20:48:25 10° NE 20:54:50 55° SE 20:59:02 22° SSW
Meteor 2-21 Rocket 4.4 20:56:51 47° SSE 20:58:37 69° E 21:04:46 10° NNE
NOSS 2-1 (C) 4.1 21:00:50 35° NNE 21:00:50 35° NNE 21:02:57 10° NNE
Cosmos 2056 Rocket 3.5 20:56:00 10° NNW 21:01:21 68° ENE 21:02:09 59° ESE
ERS-1 Rocket 3.2 21:00:35 47° SSW 21:01:50 64° WSW 21:06:50 10° NNW
SL-27 R/B 3.5 21:06:23 41° NNE 21:06:23 41° NNE 21:08:51 10° NNE
Meteor 2-21 4.5 21:02:37 37° SSW 21:05:18 81° W 21:11:29 10° N
NOSS 2-1 (D) 4.2 21:08:18 37° N 21:08:18 37° N 21:10:37 10° NNE
Cosmos 2360 Rocket 2.2 21:03:36 10° NNW 21:09:13 65° ENE 21:10:08 56° ESE
Cosmos 1833 4.1 21:14:09 56° S 21:15:27 83° ESE 21:21:15 10° NNE
ISS -1.3 21:14:46 10° WNW 21:15:56 17° W 21:15:56 17° W
Cosmos 2333 Rocket 3.0 21:14:28 10° N 21:19:45 39° ENE 21:20:38 36° E
Cosmos 1500 Rocket 4.0 21:22:34 53° NE 21:22:34 53° NE 21:26:08 10° NNE
Meteor 1-10 Rocket 4.0 21:16:38 10° N 21:22:13 89° E 21:22:51 71° SSE
Cosmos 1371 Rocket 4.0 21:17:28 10° NNW 21:22:49 70° WSW 21:23:22 64° SW
Cosmos 972 Rocket 4.5 21:23:45 48° ENE 21:23:45 48° ENE 21:28:02 10° NNE
Cosmos 1812 3.7 21:19:49 10° NNW 21:23:03 43° WNW 21:23:03 43° WNW
USA 234 4.4 21:22:43 15° E 21:27:28 37° NNE 21:33:21 10° NW
Cosmos 2322 4.3 21:24:38 10° NNW 21:30:07 45° ENE 21:30:48 43° E
Cosmos 292 Rocket 3.8 21:29:15 10° NNW 21:33:40 73° NNE 21:33:40 73° NNE
Cosmos 2237 Rocket 4.3 21:36:37 10° N 21:40:02 16° NE 21:42:15 13° ENE
Cosmos 2322 Rocket 2.9 21:36:02 10° NW 21:41:13 40° WSW 21:41:46 38° WSW
Cosmos 1743 Rocket 4.0 21:42:22 61° NNW 21:42:22 61° NNW 21:46:07 10° N
Cosmos 2285 Rocket 4.2 21:40:49 10° NNW 21:47:00 55° ENE 21:47:42 52° E
IRIDIUM 106 4.3 21:43:23 10° N 21:48:18 76° NE 21:48:18 76° NE
Sich 1 4.3 21:51:50 35° NE 21:51:50 35° NE 21:54:34 10° NNE
Cosmos 2315 Rocket 3.9 21:45:22 10° N 21:51:43 81° E 21:52:17 74° SE
Cosmos 2266 Rocket 4.3 21:53:29 50° SW 21:54:47 60° W 22:00:56 10° N
Cosmos 1048 Rocket 4.3 21:59:26 58° NE 21:59:26 58° NE 22:03:34 10° NNE
Cosmos 489 Rocket 4.4 21:59:05 68° E 21:59:05 68° E 22:05:19 10° NNE
Cosmos 2219 Rocket 2.2 21:57:32 10° NNW 22:02:58 70° NE 22:02:58 70° NE
BREEZE-M DEB (TANK) 4.3 21:50:15 10° WSW 22:06:13 83° SSE 22:10:46 10° ENE
Cosmos 2228 Rocket 4.0 22:02:49 10° NNW 22:06:05 47° NNW 22:06:05 47° NNW
SL-16 R/B 4.1 22:05:46 10° WNW 22:09:19 17° W 22:09:55 17° WSW
COSMOS 2455 3.0 22:09:10 59° WSW 22:10:05 68° WNW 22:16:07 10° NNE
Cosmos 2333 4.3 22:07:05 10° NNW 22:12:13 65° W 22:12:13 65° W
NOSS 3-1 (C) 4.0 22:04:56 10° NW 22:12:42 87° WSW 22:14:30 61° SSE
COSMOS 2428 2.8 22:12:11 10° NNW 22:17:35 73° NE 22:17:35 73° NE
Spot 4 4.4 22:21:45 54° NW 22:21:45 54° NW 22:25:35 10° NNW
USA 229 DEB 3.9 22:19:25 10° NNW 22:26:50 76° NE 22:28:17 61° ESE
USA 229 3.9 22:19:31 10° NNW 22:26:56 75° NE 22:28:23 60° ESE
Terra 4.3 22:26:50 12° W 22:26:56 12° W 22:28:53 10° WNW
ATLAS 5 CENTAUR R/B 2.7 22:24:30 10° NNW 22:30:06 57° NE 22:30:40 54° ENE
ALOS 2 3.8 22:33:57 42° N 22:33:57 42° N 22:36:52 10° NNW
Cosmos 1452 Rocket 4.2 22:28:41 10° NNW 22:32:49 47° WNW 22:32:49 47° WNW
USA 267 4.1 22:31:32 10° NE 22:37:45 48° NNW 22:43:58 10° WSW
Cosmos 2219 4.4 22:40:38 32° ENE 22:40:38 32° ENE 22:44:23 10° NE
SL-08 ROCKET BODY 4.4 22:44:13 80° NW 22:44:13 80° NW 22:50:11 10° N
Nadezhda 1 Rocket 4.2 22:38:01 10° N 22:44:21 59° E 22:44:26 59° E
NOSS 3-1 (A) 4.0 22:39:38 10° NW 22:47:23 86° WSW 22:48:49 66° SSE
Cosmos 2360 Rocket 4.2 22:49:05 10° WNW 22:51:53 17° W 22:51:53 17° W
Cosmos 1980 4.0 22:56:07 10° NNW 23:01:19 63° NE 23:01:19 63° NE
Cosmos 2333 Rocket 3.6 22:59:00 10° NW 23:02:38 27° W 23:02:38 27° W
Meteor 2-17 Rocket 4.5 23:05:18 69° ENE 23:05:18 69° ENE 23:10:54 10° NNE
USA 234 3.1 23:10:02 82° SW 23:10:05 83° SW 23:16:40 10° NW
Cosmos 2297 Rocket 2.4 23:17:11 68° NNE 23:17:11 68° NNE 23:22:07 10° NNE
NOSS 0 Rocket 4.1 23:10:31 10° NNW 23:16:01 63° WNW 23:16:01 63° WNW
Lacrosse 5 2.7 23:21:59 48° NNE 23:21:59 48° NNE 23:25:41 10° NE
Cosmos 2237 Rocket 2.4 23:19:10 10° NNW 23:24:02 66° NNW 23:24:02 66° NNW
Cosmos 2227 Rocket 2.4 23:28:53 67° NNE 23:28:53 67° NNE 23:33:47 10° NNE
Cosmos 909 Rocket 4.0 23:31:44 82° SE 23:31:52 83° ESE 23:39:19 10° NNE
Timation 1 Rocket 4.3 23:41:04 77° NE 23:41:04 77° NE 23:46:39 10° NNE
Meteor 1-11 Rocket 3.8 23:41:19 69° NNE 23:41:19 69° NNE 23:46:13 10° NNE
Cosmos 2263 Rocket 3.9 23:46:36 21° E 23:46:36 21° E 23:50:27 10° NE
Cosmos 2219 Rocket 4.4 23:43:15 10° WNW 23:44:40 14° WNW 23:44:40 14° WNW
SL-16 R/B 2.6 23:46:40 10° NNW 23:52:14 55° ENE 23:52:42 53° E
Cosmos 1992 Rocket 4.3 23:47:32 10° NNW 23:52:06 63° NNE 23:52:06 63° NNE
